[[[{"header":{"parameterUnit":"kt","parameterCategory":2,"dx":1,"dy":1,"la1":30.253999710083008,"la2":30.299108505249023,"lo1":-89.0895004272461,"lo2":-89.04439544677734,"nx":28,"ny":28,"refTime":"2022-09-26T21:00:00:Z","depth":0,"parameterNumber":1,"parameterNumberName":"U-component_of_WINDS"},"data":[-8.5543,-8.5798,-8.5775,-8.6055,-8.6081,-8.6269,-8.6329,-8.6403,-8.6456,-8.6676,-8.6798,-8.68,-8.6843,-8.6983,-8.7113,-8.7111,-8.7171,-8.7276,-8.7257,-8.68,-8.6735,-8.6674,-8.6614,-8.7288,-8.7289,-8.7735,-8.774,-8.7743,-8.5208,-8.5237,-8.5378,-8.55,-8.5621,-8.5504,-8.559,-8.5699,-8.587,-8.5936,-8.6055,-8.6247,-8.6395,-8.6402,-8.654,-8.6658,-8.6613,-8.6698,-8.6692,-8.6701,-8.621,-8.6146,-8.6733,-8.6733,-8.6732,-8.6732,-8.6732,-8.6732,-8.4593,-8.4747,-8.4807,-8.496,-8.5014,-8.5096,-8.5238,-8.5237,-8.5374,-8.5517,-8.5461,-8.5653,-8.5715,-8.587,-8.5916,-8.6065,-8.5966,-8.6053,-8.6076,-8.6101,-8.6132,-8.5498,-8.6086,-8.6084,-8.6083,-8.6081,-8.608,0,-8.4138,-8.4108,-8.4242,-8.437,-8.4479,-8.4576,-8.466,-8.4747,-8.4675,-8.4792,-8.4958,-8.5051,-8.5232,-8.5387,-8.551,-8.554,-8.5434,-8.5418,-8.5479,-8.5514,-8.5527,-8.5528,-8.4733,-8.5403,-8.5397,-8.5393,-8.539,-8.5388,-8.3521,-8.3702,-8.3753,-8.385,-8.389,-8.4048,-8.4137,-8.4059,-8.4158,-8.4249,-8.4389,-8.4541,-8.466,-8.4931,-8.4928,-8.5064,-8.5015,-8.5274,-8.5035,-8.5058,-8.5025,-8.5018,-8.5037,-8.5325,-8.5333,-8.5339,-8.5345,0,-8.3177,-8.3137,-8.341,-8.3442,-8.3455,-8.3649,-8.3676,-8.3826,-8.3807,-8.4011,-8.4054,-8.4028,-8.4193,-8.4148,-8.4327,-8.4299,-8.4619,-8.4563,-8.4597,-8.4585,-8.4816,-8.4798,-8.5565,-8.5663,-8.4957,-8.4964,-8.4969,0,-8.2638,-8.2878,-8.2806,-8.2966,-8.3229,-8.3146,-8.3409,-8.342,-8.3472,-8.3631,-8.35,-8.3653,-8.357,-8.3717,-8.3675,-8.3927,-8.3959,-8.3955,-8.3943,-8.3971,-8.3973,-8.4027,-8.3997,-8.39,-8.3896,-8.3893,-8.389,0,-8.2108,-8.2349,-8.2607,-8.2656,-8.2716,-8.2839,-8.287,-8.2926,-8.3015,-8.3121,-8.3178,-8.3308,-8.3381,-8.3483,-8.343,-8.327,-8.3736,-8.3505,-8.3732,-8.3734,-8.3843,-8.3838,-8.4523,-8.3885,-8.3884,-8.3882,-8.3881,0,-8.1669,-8.1778,-8.2158,-8.2204,-8.2271,-8.2441,-8.2564,-8.2698,-8.2769,-8.2753,-8.2836,-8.2746,-8.2959,-8.2734,-8.3028,-8.2836,-8.2915,-8.2928,-8.2943,-8.2966,-8.2717,-8.3117,-8.3768,-8.3838,-8.2978,-8.297,-8.2964,0,-8.1075,-8.1447,-8.1379,-8.1742,-8.1908,-8.1751,-8.1938,-8.2003,-8.1998,-8.2138,-8.2131,-8.2293,-8.2114,-8.2159,-8.2309,-8.2311,-8.2561,-8.2275,-8.2483,-8.2492,-8.2475,-8.3073,-8.3185,-8.3629,-8.2867,-8.2877,-8.2884,0,-8.0611,-8.068,-8.075,-8.0803,-8.0876,-8.1014,-8.1228,-8.1369,-8.1467,-8.1553,-8.1733,-8.1955,-8.1831,-8.1907,-8.1847,-8.2007,-8.2389,-8.1853,-8.1853,-8.1955,-8.2812,-8.2917,-8.2992,-8.2314,-8.2325,-8.2335,-8.2807,0,-7.9965,-8.0145,-8.033,-8.0451,-8.0549,-8.0773,-8.0725,-8.0835,-8.0767,-8.0757,-8.1018,-8.1061,-8.1206,-8.1277,-8.1213,-8.1591,-8.1523,-8.1389,-8.1172,-8.1562,-8.1717,-8.178,-8.0944,-8.0937,-8.0932,-8.0927,0,0,-7.941,-7.9667,-7.9585,-7.9791,-7.987,-7.9704,-7.9948,-8.0005,-8.0127,-8.0186,-8.0062,-8.0385,-8.0427,-8.075,-8.0867,-8.0925,-8.099,-8.0856,-8.1375,-8.1425,-8.1472,-8.1638,-8.1704,-8.0917,-8.0915,-8.0913,-8.0911,0,-7.9166,-7.9208,-7.9449,-7.9504,-7.9583,-7.956,-7.9618,-7.9668,-7.9674,-7.9928,-7.9791,-7.9941,-8.0202,-8.0265,-8.0332,-8.0813,-8.0704,-8.086,-8.1137,-8.132,-8.1377,-8.1428,-8.1604,-8.1667,-8.0897,-8.0898,-8.0899,0,-7.8704,-7.874,-7.885,-7.902,-7.907,-7.9245,-7.9003,-7.9198,-7.9327,-7.9139,-7.9395,-7.9413,-7.9493,-7.9803,-7.994,-7.9833,-8.0447,-8.0244,-8.0278,-8.0294,-8.0469,-8.0539,-8.06,-7.9788,-7.9785,-7.9781,0,0,-7.85,-7.8666,-7.8681,-7.8964,-7.9005,-7.8975,-7.9062,-7.9005,-7.9079,-7.9109,-7.9131,-7.9209,-7.9359,-7.946,-7.9599,-7.9945,-7.9957,-8.0109,-8.0161,-8.0204,-8.0244,-8.043,-8.0499,-7.9767,-7.9767,-7.9767,0,0,-7.8403,-7.8431,-7.835,-7.8671,-7.8746,-7.8781,-7.8956,-7.8857,-7.8977,-7.8947,-7.8859,-7.8876,-7.9165,-7.9189,-7.9009,-7.9521,-7.9306,-7.9348,-7.9496,-7.9562,-7.9613,-7.9604,-7.8771,0,0,0,0,0,-7.8129,-7.8426,-7.8352,-7.8399,-7.8614,-7.8822,-7.8849,-7.8783,-7.8631,-7.8772,-7.8774,-7.865,-7.9074,-7.8912,-7.896,-7.9164,-7.9589,-7.9621,-7.965,-7.9922,-7.9991,-8.0049,0,0,0,0,0,0,-7.8147,-7.8205,-7.8344,-7.8393,-7.844,-7.881,-7.854,-7.853,-7.8615,-7.8587,-7.8653,-7.8652,-7.86,-7.8882,-7.8927,-7.9123,-7.8755,-7.9601,-7.9628,-7.9652,-7.9946,-8.0002,-8.005,0,0,0,0,0,-7.8161,-7.8207,-7.8569,-7.8388,-7.843,-7.8413,-7.8528,-7.8518,-7.8582,-7.8588,-7.8582,-7.8525,-7.8607,-7.864,-7.8909,-7.9104,-7.8724,-7.8741,-7.9619,-7.964,-7.9659,-7.9973,0,0,0,0,0,0,-7.8171,-7.8199,-7.8576,-7.8586,-7.8271,-7.839,-7.8407,-7.8508,-7.8575,-7.8574,-7.8454,-7.8432,-7.8616,-7.864,-7.8667,-7.9101,-7.8698,-7.8716,-7.8726,-7.9635,-7.9651,-7.9666,0,0,0,0,0,0,-7.8174,-7.8209,-7.8581,-7.8437,-7.8429,-7.8371,-7.8386,-7.8603,-7.8579,-7.8438,-7.8421,-7.8443,-7.8577,-7.8642,-7.8661,-7.9005,-7.8679,-7.8695,-7.8707,-7.8714,-7.9648,-7.9661,0,0,0,0,0,0,-7.8188,-7.8218,-7.8433,-7.8428,-7.8421,-7.853,-7.8562,-7.8786,-7.8454,-7.8437,-7.8422,-7.8408,-7.8583,-7.8601,-7.8659,-7.8995,-7.9002,-7.8679,-7.869,-7.8698,-7.8704,0,0,0,0,0,0,0,-7.8199,-7.8012,-7.8515,-7.8421,-7.8414,-7.868,-7.8682,-7.8685,-7.8451,-7.8438,-7.8425,-7.8414,-7.8585,-7.8603,-7.8621,-7.8987,0,0,-7.8678,-7.8686,0,0,0,0,0,0,0,0,-7.7997,-7.8008,-7.8516,-7.8518,-7.852,-7.868,-7.8682,-7.8684,-7.8448,-7.8438,-7.8428,-7.8418,-7.8589,-7.8604,-7.8619,0,0,0,0,0,0,0,0,0,0,0,0,0,0,0,-7.8516,-7.8518,0,-7.868,-7.8682,-7.8684,-7.8447,-7.8439,-7.843,-7.8422,-7.8594,-7.8606,-7.8618,0,0,0,0,0,0,0,0,0,0,0,0,0,0,0,0,0,0,0,0,0,0,0,0,0,0,0,0,0,0,0,0,0,0,0,0,0,0,0,0,0,0,0,0,0,0,0,0,0,0,0,0,0,0,0,0,0,0,0,0,0,0,0,0,0,0,0,0,0]}],[{"header":{"parameterUnit":"kt","parameterCategory":2,"dx":1,"dy":1,"la1":30.253999710083008,"la2":30.299108505249023,"lo1":-89.0895004272461,"lo2":-89.04439544677734,"nx":28,"ny":28,"refTime":"2022-09-26T21:00:00:Z","depth":0,"parameterNumber":2,"parameterNumberName":"V-component_of_WINDS"},"data":[-17.2361,-17.2655,-17.2635,-17.2958,-17.2993,-17.3208,-17.3278,-17.3364,-17.3426,-17.3676,-17.3815,-17.3818,-17.3867,-17.4023,-17.4168,-17.4165,-17.4229,-17.4349,-17.4324,-17.3811,-17.3738,-17.3668,-17.3598,-17.4363,-17.4364,-17.486,-17.4865,-17.4868,-17.1985,-17.2024,-17.219,-17.2336,-17.2476,-17.2347,-17.2449,-17.2574,-17.2769,-17.2847,-17.2982,-17.3199,-17.3365,-17.3371,-17.3525,-17.3657,-17.3603,-17.37,-17.369,-17.3699,-17.3148,-17.3075,-17.3741,-17.3741,-17.3741,-17.3741,-17.3741,-17.374,-17.1294,-17.1472,-17.1547,-17.1726,-17.1792,-17.1889,-17.2052,-17.2054,-17.2212,-17.2375,-17.2313,-17.2531,-17.2601,-17.2773,-17.2823,-17.2988,-17.2875,-17.2972,-17.2997,-17.3023,-17.3056,-17.2343,-17.3013,-17.3011,-17.3009,-17.3007,-17.3006,0,-17.0781,-17.0752,-17.0909,-17.106,-17.1189,-17.1302,-17.1401,-17.1501,-17.1423,-17.1557,-17.1746,-17.1851,-17.2055,-17.2228,-17.2365,-17.2396,-17.2271,-17.2255,-17.2322,-17.2357,-17.237,-17.2366,-17.147,-17.2236,-17.2229,-17.2224,-17.2221,-17.2218,-17.0082,-17.0292,-17.0359,-17.0473,-17.0521,-17.0705,-17.0808,-17.0724,-17.0837,-17.0943,-17.1101,-17.1273,-17.1407,-17.1711,-17.1704,-17.1855,-17.1796,-17.2091,-17.1817,-17.1842,-17.18,-17.1789,-17.1809,-17.2146,-17.2156,-17.2163,-17.2169,0,-16.9691,-16.9653,-16.997,-17.0014,-17.0031,-17.0253,-17.0288,-17.0459,-17.044,-17.0672,-17.0721,-17.0691,-17.0876,-17.0822,-17.1021,-17.0987,-17.1346,-17.1283,-17.1321,-17.1305,-17.1564,-17.1541,-17.2414,-17.2523,-17.173,-17.1737,-17.1744,0,-16.9079,-16.9357,-16.9284,-16.947,-16.9774,-16.9682,-16.9984,-16.9998,-17.0058,-17.0239,-17.009,-17.0263,-17.0166,-17.033,-17.0279,-17.0562,-17.0599,-17.0589,-17.0573,-17.0604,-17.0605,-17.066,-17.0624,-17.0526,-17.0522,-17.0518,-17.0515,0,-16.8471,-16.8756,-16.9058,-16.9116,-16.919,-16.9332,-16.9369,-16.9434,-16.9536,-16.9657,-16.9721,-16.9868,-16.9949,-17.0064,-16.9998,-16.9814,-17.0342,-17.0076,-17.0332,-17.0334,-17.0452,-17.0446,-17.1233,-17.0509,-17.0508,-17.0506,-17.0505,0,-16.7971,-16.8101,-16.8544,-16.8601,-16.8679,-16.8876,-16.9017,-16.9173,-16.9253,-16.9235,-16.9329,-16.9222,-16.9466,-16.9205,-16.9538,-16.9318,-16.9405,-16.9417,-16.9434,-16.9453,-16.9163,-16.9615,-17.037,-17.0446,-16.9469,-16.9461,-16.9453,0,-16.7284,-16.7721,-16.7646,-16.8068,-16.8261,-16.8081,-16.8298,-16.8374,-16.8367,-16.8527,-16.8516,-16.8699,-16.8494,-16.8543,-16.8715,-16.8711,-16.8998,-16.8671,-16.8898,-16.8907,-16.8884,-16.9577,-16.9704,-17.021,-16.9342,-16.9353,-16.9362,0,-16.6747,-16.6837,-16.6918,-16.698,-16.7068,-16.7229,-16.7478,-16.764,-16.7751,-16.7852,-16.8057,-16.8311,-16.8166,-16.825,-16.8177,-16.836,-16.8801,-16.8179,-16.8179,-16.8293,-16.9281,-16.94,-16.9486,-16.8711,-16.8725,-16.8735,-16.9274,0,-16.6,-16.6214,-16.643,-16.6574,-16.6689,-16.695,-16.6895,-16.7023,-16.6943,-16.6929,-16.7229,-16.7276,-16.7438,-16.7519,-16.7442,-16.7878,-16.7796,-16.7639,-16.7381,-16.7837,-16.8013,-16.8085,-16.7124,-16.7116,-16.7109,-16.7104,0,0,-16.5353,-16.5657,-16.5567,-16.5807,-16.5899,-16.5708,-16.5991,-16.6057,-16.6197,-16.6263,-16.6119,-16.6487,-16.6531,-16.69,-16.7037,-16.7103,-16.7175,-16.7018,-16.7621,-16.7679,-16.7732,-16.7921,-16.7997,-16.7092,-16.709,-16.7087,-16.7085,0,-16.5069,-16.5124,-16.5408,-16.5473,-16.5567,-16.5539,-16.5608,-16.5665,-16.567,-16.5964,-16.58,-16.5972,-16.6268,-16.6336,-16.641,-16.6972,-16.6837,-16.7026,-16.7348,-16.7555,-16.7622,-16.7681,-16.7881,-16.7954,-16.7069,-16.707,-16.707,0,-16.453,-16.4575,-16.4706,-16.4908,-16.4967,-16.5171,-16.4888,-16.5115,-16.5263,-16.5039,-16.5334,-16.5352,-16.5438,-16.5795,-16.5952,-16.5825,-16.6534,-16.63,-16.634,-16.6356,-16.6554,-16.6634,-16.6706,-16.5763,-16.5759,-16.5755,0,0,-16.4292,-16.449,-16.451,-16.4843,-16.4892,-16.4855,-16.4957,-16.4888,-16.4972,-16.5006,-16.5027,-16.5111,-16.5281,-16.5396,-16.5552,-16.5953,-16.5962,-16.6141,-16.6203,-16.6254,-16.6297,-16.6509,-16.6588,-16.5739,-16.5738,-16.5738,0,0,-16.4177,-16.4215,-16.412,-16.45,-16.4587,-16.4627,-16.4831,-16.4715,-16.4851,-16.4814,-16.4705,-16.4723,-16.5055,-16.5079,-16.4869,-16.5459,-16.5205,-16.5254,-16.5432,-16.5509,-16.5569,-16.5557,-16.4583,0,0,0,0,0,-16.3859,-16.4209,-16.4124,-16.4179,-16.4433,-16.4675,-16.4706,-16.4626,-16.4448,-16.4612,-16.461,-16.4459,-16.4943,-16.4754,-16.4809,-16.5044,-16.5529,-16.5566,-16.5601,-16.5924,-16.6005,-16.6073,0,0,0,0,0,0,-16.388,-16.3948,-16.4114,-16.417,-16.4226,-16.4662,-16.4343,-16.433,-16.4429,-16.4396,-16.4464,-16.4461,-16.4395,-16.472,-16.4771,-16.4996,-16.4565,-16.5544,-16.5575,-16.5604,-16.5952,-16.6018,-16.6075,0,0,0,0,0,-16.3896,-16.3951,-16.438,-16.4164,-16.4213,-16.419,-16.4329,-16.4316,-16.439,-16.4389,-16.438,-16.4321,-16.4404,-16.444,-16.4749,-16.4975,-16.453,-16.4549,-16.5564,-16.5589,-16.5611,-16.5984,0,0,0,0,0,0,-16.3908,-16.394,-16.4387,-16.4399,-16.4026,-16.4164,-16.4183,-16.4304,-16.4374,-16.437,-16.4238,-16.4212,-16.4414,-16.444,-16.447,-16.4973,-16.45,-16.452,-16.4532,-16.5583,-16.5603,-16.562,0,0,0,0,0,0,-16.3909,-16.3951,-16.4393,-16.4224,-16.4215,-16.414,-16.4158,-16.4407,-16.4377,-16.4219,-16.4199,-16.4225,-16.4368,-16.4443,-16.4465,-16.4858,-16.4478,-16.4497,-16.451,-16.4518,-16.5599,-16.5614,0,0,0,0,0,0,-16.3925,-16.3961,-16.422,-16.4214,-16.4205,-16.4329,-16.4359,-16.4622,-16.4236,-16.4219,-16.4198,-16.4181,-16.4375,-16.4395,-16.4463,-16.4848,-16.4856,-16.4479,-16.4492,-16.4501,-16.4507,0,0,0,0,0,0,0,-16.3938,-16.3719,-16.4319,-16.4205,-16.4197,-16.4507,-16.451,-16.4513,-16.4232,-16.4217,-16.4202,-16.4189,-16.4371,-16.4392,-16.4412,-16.4839,0,0,-16.4477,-16.4486,0,0,0,0,0,0,0,0,-16.3702,-16.3715,-16.4319,-16.4322,-16.4324,-16.4507,-16.451,-16.4512,-16.423,-16.4217,-16.4205,-16.4194,-16.4377,-16.4393,-16.441,0,0,0,0,0,0,0,0,0,0,0,0,0,0,0,-16.432,-16.4322,0,-16.4508,-16.451,-16.4512,-16.4228,-16.4218,-16.4208,-16.4199,-16.4381,-16.4395,-16.4409,0,0,0,0,0,0,0,0,0,0,0,0,0,0,0,0,0,0,0,0,0,0,0,0,0,0,0,0,0,0,0,0,0,0,0,0,0,0,0,0,0,0,0,0,0,0,0,0,0,0,0,0,0,0,0,0,0,0,0,0,0,0,0,0,0,0,0,0,0]}]]]